星链-31931 (STARLINK-31931 )

导读 | 豆包AI

STARLINK-31931是美国太空探索技术公司星链互联网卫星星座中的一颗卫星,于北京时间2024年5月24日发射入轨。星链星座旨在为全球用户提供高速低延迟宽带互联网服务,该卫星的发射延续了星链星座不断组网扩张的节奏,进一步完善了星链星座的全球覆盖与服务能力。

基本信息
目录编号:
59864
目录名称:
STARLINK-31931
国际标识:
2024-098G
轨道中心:
EARTH
卫星名称:
星链-31931
卫星全名:
星链-31931 (STARLINK-31931 )
卫星状态:
在轨 (已飞行660 天)
发射日期:
2024-05-24 UTC
国别 :
美国 (US)
星等 :
--
轨道信息
数据来源 国际轨道数据 AOE轨道数据
星历时间 2026-03-15T12:34:22+0800
15小时前
查看轨道信息
2026-03-16T02:00:00+0800
1小时前
查看轨道信息
半长轴 6861.178km 6861.229km
偏心率 0.0001273 0.0001474
轨道倾角 43.003° 43.005°
近地点辐角 258.178° 273.422°
升交点赤经 247.256° 244.098°
平近点角 101.893° 286.863°
近地点 482.167km 482.08km
远地点 483.915km 484.104km
周期 94.267分钟 94.268分钟
每日圈数 15.275828 15.275659
详细信息
固有亮度:
5
最大亮度:
1.5
卫星平台:
Starlink v2.0 mini
覆盖范围:
全球
运营商:
太空探索技术公司
运营商所在国:
美国
制造商(研发单位):
太空探索技术公司
制造商所在国:
美国
使用方式:
暂无
卫星简介
星链(Starlink)计划是由太空探索技术公司(SpaceX)提出的一个巨型低轨卫星互联网星座项目,计划在2019年至2024年间在太空搭建由约1.2万颗卫星组成的“星链”网络,其中1584颗将部署在地球上空550千米处的近地轨道,并从2020年开始工作。该卫星仍在工作。
2D轨道图
3D轨道图
轨道高度分析图
轨道倾角分析图
轨道综合分析图
查看轨道综合分析图